CSN3856 ZBAD-ZGGG

Flight info

Callsign CSN3856
Flight time N/A
Altitude 40100
Route PEGSO6K PEGSO B215 EKETA B208 SQ W45 IKAVO IKAVO9
Aircraft A359/H-SDE2E3GHIJ3J4J5LM1ORWXY/LB1D1

Departure

Time 2026-04-18 05:26
Airport Beijing Daxing International Airport (ZBAD)

Arrival

Time N/A
Airport Guangzhou Baiyun International Airport (ZGGG)
Time Latitude Longitude Altitude Speed Heading
2026-04-18 05:07 39.51001 116.41439 91 ft 0 kts 230°
2026-04-18 05:10 39.51005 116.41445 91 ft 4 kts 230°
2026-04-18 05:10 39.51022 116.41471 94 ft 4 kts 230°
2026-04-18 05:11 39.51039 116.41499 94 ft 4 kts 234°
2026-04-18 05:11 39.51054 116.41527 93 ft 4 kts 237°
2026-04-18 05:11 39.51069 116.41556 94 ft 4 kts 233°
2026-04-18 05:11 39.51086 116.41580 92 ft 4 kts 199°
2026-04-18 05:12 39.51094 116.41583 107 ft 0 kts 180°
2026-04-18 05:16 39.51051 116.41590 86 ft 9 kts 158°
2026-04-18 05:16 39.51021 116.41661 93 ft 10 kts 104°
2026-04-18 05:16 39.51010 116.41762 93 ft 12 kts 94°
2026-04-18 05:16 39.51013 116.41882 91 ft 14 kts 84°
2026-04-18 05:17 39.51027 116.42020 91 ft 16 kts 84°
2026-04-18 05:17 39.50959 116.42086 93 ft 14 kts 169°
2026-04-18 05:17 39.50858 116.42104 93 ft 16 kts 172°
2026-04-18 05:17 39.50742 116.42121 92 ft 18 kts 173°
2026-04-18 05:18 39.50610 116.42141 93 ft 20 kts 173°
2026-04-18 05:18 39.50465 116.42163 94 ft 22 kts 173°
2026-04-18 05:18 39.50308 116.42188 92 ft 24 kts 173°
2026-04-18 05:18 39.50119 116.42219 94 ft 30 kts 173°
2026-04-18 05:19 39.49912 116.42253 95 ft 30 kts 173°
2026-04-18 05:19 39.49702 116.42284 94 ft 30 kts 173°
2026-04-18 05:19 39.49592 116.42291 92 ft 10 kts 206°
2026-04-18 05:19 39.49574 116.42213 95 ft 10 kts 263°
2026-04-18 05:20 39.49563 116.42090 92 ft 19 kts 263°
2026-04-18 05:20 39.49544 116.41881 92 ft 28 kts 263°
2026-04-18 05:20 39.49516 116.41600 91 ft 35 kts 263°
2026-04-18 05:20 39.49485 116.41260 94 ft 37 kts 263°
2026-04-18 05:21 39.49458 116.40977 93 ft 31 kts 263°
2026-04-18 05:21 39.49432 116.40700 92 ft 31 kts 263°
2026-04-18 05:21 39.49405 116.40417 95 ft 32 kts 263°
2026-04-18 05:21 39.49384 116.40246 94 ft 10 kts 240°
2026-04-18 05:22 39.49320 116.40230 96 ft 10 kts 174°
2026-04-18 05:22 39.49239 116.40241 98 ft 14 kts 174°
2026-04-18 05:22 39.49118 116.40258 97 ft 21 kts 174°
2026-04-18 05:22 39.48941 116.40284 97 ft 30 kts 173°
2026-04-18 05:23 39.48730 116.40319 95 ft 31 kts 172°
2026-04-18 05:23 39.48537 116.40352 97 ft 16 kts 172°
2026-04-18 05:23 39.48451 116.40365 96 ft 10 kts 179°
2026-04-18 05:23 39.48419 116.40313 99 ft 7 kts 255°
2026-04-18 05:24 39.48411 116.40262 101 ft 4 kts 260°
2026-04-18 05:24 39.48407 116.40227 101 ft 6 kts 261°
2026-04-18 05:24 39.48436 116.40151 104 ft 11 kts 341°
2026-04-18 05:24 39.48516 116.40134 104 ft 12 kts 353°
2026-04-18 05:25 39.48612 116.40118 105 ft 22 kts 353°
2026-04-18 05:25 39.49015 116.40054 105 ft 94 kts 353°
2026-04-18 05:25 39.49860 116.39923 105 ft 153 kts 353°
2026-04-18 05:25 39.51036 116.39742 473 ft 171 kts 353°
2026-04-18 05:26 39.52203 116.39553 1238 ft 171 kts 353°
2026-04-18 05:26 39.53405 116.39351 1931 ft 174 kts 352°
2026-04-18 05:26 39.54600 116.39138 2427 ft 176 kts 351°
2026-04-18 05:26 39.55878 116.38912 2639 ft 195 kts 351°
2026-04-18 05:27 39.57293 116.38676 2869 ft 215 kts 350°
2026-04-18 05:27 39.58842 116.38423 3094 ft 234 kts 349°
2026-04-18 05:27 39.60497 116.38156 3351 ft 252 kts 349°
2026-04-18 05:27 39.62306 116.37866 3605 ft 271 kts 350°
2026-04-18 05:28 39.64215 116.37560 4043 ft 281 kts 349°
2026-04-18 05:28 39.66085 116.36836 4545 ft 280 kts 326°
2026-04-18 05:28 39.67425 116.35157 5147 ft 269 kts 295°
2026-04-18 05:28 39.67946 116.32895 5747 ft 260 kts 268°
2026-04-18 05:29 39.67889 116.30555 6357 ft 260 kts 262°
2026-04-18 05:29 39.67726 116.28210 6929 ft 262 kts 261°
2026-04-18 05:29 39.67560 116.25842 7524 ft 265 kts 261°
2026-04-18 05:29 39.67400 116.23452 8137 ft 266 kts 261°
2026-04-18 05:30 39.67247 116.21080 8742 ft 268 kts 261°
2026-04-18 05:30 39.67094 116.18656 9367 ft 270 kts 261°
2026-04-18 05:30 39.66941 116.16211 9967 ft 273 kts 261°
2026-04-18 05:30 39.66784 116.13716 10340 ft 283 kts 261°
2026-04-18 05:31 39.66621 116.11100 10574 ft 298 kts 261°
2026-04-18 05:31 39.66456 116.08453 10664 ft 292 kts 262°
2026-04-18 05:31 39.66300 116.05870 10548 ft 284 kts 261°
2026-04-18 05:31 39.66147 116.03361 10419 ft 273 kts 261°
2026-04-18 05:32 39.65970 116.00933 10325 ft 275 kts 257°
2026-04-18 05:32 39.65349 115.98476 10609 ft 300 kts 238°
2026-04-18 05:32 39.63888 115.96472 11127 ft 316 kts 212°
2026-04-18 05:32 39.61806 115.95552 11936 ft 329 kts 188°
2026-04-18 05:33 39.59478 115.95875 12790 ft 344 kts 168°
2026-04-18 05:33 39.57110 115.96548 13611 ft 351 kts 176°
2026-04-18 05:33 39.54650 115.96708 14442 ft 356 kts 182°
2026-04-18 05:33 39.52156 115.96907 15322 ft 362 kts 177°
2026-04-18 05:34 39.49667 115.97276 16159 ft 367 kts 176°
2026-04-18 05:34 39.47116 115.97675 16801 ft 372 kts 176°
2026-04-18 05:34 39.44526 115.98075 17447 ft 377 kts 176°
2026-04-18 05:34 39.41906 115.98473 18118 ft 381 kts 176°
2026-04-18 05:35 39.39262 115.98870 18724 ft 385 kts 176°
2026-04-18 05:35 39.36588 115.99269 19343 ft 388 kts 175°
2026-04-18 05:35 39.33930 115.99665 19978 ft 391 kts 175°
2026-04-18 05:35 39.31215 116.00068 20646 ft 394 kts 175°
2026-04-18 05:36 39.28478 116.00473 21298 ft 397 kts 175°
2026-04-18 05:36 39.25715 116.00882 21941 ft 401 kts 175°
2026-04-18 05:36 39.22931 116.01243 22574 ft 403 kts 179°
2026-04-18 05:36 39.20138 116.00995 23193 ft 404 kts 194°
2026-04-18 05:37 39.17542 115.99766 23731 ft 404 kts 210°
2026-04-18 05:37 39.15302 115.97590 24214 ft 406 kts 226°
2026-04-18 05:37 39.13608 115.94666 24718 ft 409 kts 239°
2026-04-18 05:37 39.12200 115.91459 25227 ft 412 kts 242°
2026-04-18 05:38 39.10824 115.88209 25739 ft 415 kts 242°
2026-04-18 05:38 39.09430 115.84936 26248 ft 419 kts 242°
2026-04-18 05:38 39.08032 115.81680 26746 ft 422 kts 242°
2026-04-18 05:38 39.06602 115.78367 27231 ft 425 kts 242°
2026-04-18 05:39 39.05157 115.75032 27756 ft 428 kts 242°
2026-04-18 05:39 39.03696 115.71666 28221 ft 431 kts 242°
2026-04-18 05:39 39.02222 115.68277 28620 ft 436 kts 242°
2026-04-18 05:39 39.00757 115.64908 29073 ft 439 kts 244°
2026-04-18 05:40 38.99337 115.61419 29451 ft 441 kts 249°
2026-04-18 05:40 38.97949 115.57888 29738 ft 445 kts 249°
2026-04-18 05:40 38.96507 115.54359 30062 ft 447 kts 248°
2026-04-18 05:40 38.95044 115.50823 30395 ft 447 kts 249°
2026-04-18 05:41 38.93754 115.47240 30662 ft 448 kts 253°
2026-04-18 05:41 38.92548 115.43528 30861 ft 451 kts 254°
2026-04-18 05:41 38.91358 115.39786 31121 ft 453 kts 254°
2026-04-18 05:41 38.90143 115.36039 31370 ft 455 kts 253°
2026-04-18 05:42 38.88893 115.32294 31578 ft 458 kts 253°
2026-04-18 05:42 38.87609 115.28554 31855 ft 459 kts 252°
2026-04-18 05:42 38.86304 115.24815 32107 ft 460 kts 252°
2026-04-18 05:42 38.84982 115.21060 32307 ft 462 kts 252°
2026-04-18 05:43 38.83673 115.17356 32516 ft 463 kts 252°
2026-04-18 05:43 38.82340 115.13592 32716 ft 465 kts 252°
2026-04-18 05:43 38.81000 115.09812 32918 ft 466 kts 252°
2026-04-18 05:43 38.79657 115.06024 33111 ft 467 kts 252°
2026-04-18 05:44 38.78306 115.02218 33286 ft 469 kts 252°
2026-04-18 05:44 38.76954 114.98409 33420 ft 471 kts 252°
2026-04-18 05:44 38.75595 114.94585 33584 ft 472 kts 252°
2026-04-18 05:44 38.74251 114.90804 33749 ft 473 kts 252°
2026-04-18 05:45 38.72886 114.86964 33901 ft 474 kts 253°
2026-04-18 05:45 38.71515 114.83114 34058 ft 475 kts 252°
2026-04-18 05:45 38.70137 114.79250 34169 ft 476 kts 252°
2026-04-18 05:45 38.68758 114.75388 34325 ft 477 kts 252°
2026-04-18 05:46 38.67380 114.71537 34505 ft 476 kts 252°
2026-04-18 05:46 38.66000 114.67682 34683 ft 475 kts 252°
2026-04-18 05:46 38.64639 114.63886 34835 ft 475 kts 252°
2026-04-18 05:46 38.63262 114.60046 34982 ft 475 kts 252°
2026-04-18 05:47 38.61879 114.56207 35128 ft 475 kts 252°
2026-04-18 05:47 38.60486 114.52375 35296 ft 475 kts 252°
2026-04-18 05:47 38.59090 114.48550 35453 ft 474 kts 252°
2026-04-18 05:47 38.57701 114.44735 35602 ft 474 kts 252°
2026-04-18 05:48 38.56329 114.40962 35740 ft 473 kts 252°
2026-04-18 05:48 38.54941 114.37149 35868 ft 473 kts 252°
2026-04-18 05:48 38.53552 114.33333 35976 ft 474 kts 252°
2026-04-18 05:48 38.52160 114.29510 36105 ft 473 kts 252°
2026-04-18 05:49 38.50771 114.25702 36237 ft 473 kts 252°
2026-04-18 05:49 38.49379 114.21893 36389 ft 473 kts 252°
2026-04-18 05:49 38.48008 114.18149 36500 ft 472 kts 252°
2026-04-18 05:49 38.46616 114.14349 36617 ft 472 kts 252°
2026-04-18 05:50 38.45222 114.10553 36745 ft 472 kts 252°
2026-04-18 05:50 38.43829 114.06761 36862 ft 472 kts 252°
2026-04-18 05:50 38.41052 113.99216 37059 ft 472 kts 252°
2026-04-18 05:51 38.39657 113.95425 37191 ft 471 kts 252°
2026-04-18 05:51 38.38265 113.91646 37312 ft 471 kts 252°
2026-04-18 05:51 38.35475 113.84085 37520 ft 471 kts 252°
2026-04-18 05:52 38.32687 113.76586 37674 ft 471 kts 252°
2026-04-18 05:52 38.31266 113.72825 37784 ft 471 kts 252°
2026-04-18 05:52 38.29842 113.69072 37844 ft 471 kts 252°
2026-04-18 05:53 38.28417 113.65322 37962 ft 470 kts 252°
2026-04-18 05:53 38.26992 113.61572 38049 ft 470 kts 252°
2026-04-18 05:53 38.24162 113.54128 38235 ft 469 kts 252°
2026-04-18 05:54 38.21315 113.46640 38326 ft 470 kts 252°
2026-04-18 05:54 38.18466 113.39166 38467 ft 469 kts 251°
2026-04-18 05:55 38.15645 113.31756 38627 ft 468 kts 252°
2026-04-18 05:55 38.12856 113.24272 38743 ft 468 kts 252°
2026-04-18 05:56 38.10091 113.16832 38819 ft 468 kts 252°
2026-04-18 05:56 38.07290 113.09346 38916 ft 469 kts 252°
2026-04-18 05:57 38.04487 113.01896 39122 ft 466 kts 252°
2026-04-18 05:57 38.03091 112.98193 39170 ft 466 kts 252°
2026-04-18 05:58 38.00311 112.90824 39267 ft 466 kts 252°
2026-04-18 05:58 37.97510 112.83413 39340 ft 466 kts 252°
2026-04-18 05:59 37.94725 112.76067 39407 ft 465 kts 252°
2026-04-18 05:59 37.91815 112.68730 39382 ft 470 kts 245°
2026-04-18 05:59 37.89791 112.65443 39312 ft 477 kts 233°
2026-04-18 06:00 37.87265 112.62700 39373 ft 482 kts 223°
2026-04-18 06:00 37.84330 112.60602 39443 ft 486 kts 211°
2026-04-18 06:00 37.81145 112.59251 39478 ft 492 kts 200°
2026-04-18 06:00 37.77735 112.58666 39472 ft 497 kts 189°
2026-04-18 06:01 37.74265 112.58901 39469 ft 502 kts 178°
2026-04-18 06:01 37.70854 112.59884 39597 ft 503 kts 172°
2026-04-18 06:01 37.67465 112.60899 39843 ft 496 kts 178°
2026-04-18 06:01 37.64094 112.61244 39885 ft 490 kts 190°
2026-04-18 06:02 37.60737 112.60636 39761 ft 486 kts 204°
2026-04-18 06:02 37.57613 112.59064 39615 ft 482 kts 217°
2026-04-18 06:02 37.54855 112.56697 39503 ft 478 kts 229°
2026-04-18 06:02 37.52154 112.54175 39048 ft 492 kts 218°
2026-04-18 06:03 37.49073 112.52351 39006 ft 498 kts 207°
2026-04-18 06:03 37.45718 112.51283 39173 ft 499 kts 196°
2026-04-18 06:03 37.42253 112.51012 39298 ft 501 kts 185°
2026-04-18 06:03 37.38787 112.51547 39346 ft 505 kts 174°
2026-04-18 06:04 37.35430 112.52882 39343 ft 509 kts 163°
2026-04-18 06:04 37.32296 112.54983 39338 ft 512 kts 152°
2026-04-18 06:04 37.29507 112.57776 39339 ft 515 kts 141°
2026-04-18 06:05 37.25006 112.64663 39562 ft 513 kts 131°
2026-04-18 06:05 37.20890 112.71994 39591 ft 514 kts 130°
2026-04-18 06:05 37.18725 112.75561 39717 ft 512 kts 137°
2026-04-18 06:06 37.16150 112.78625 39772 ft 509 kts 149°
2026-04-18 06:06 37.13210 112.80987 39705 ft 509 kts 160°
2026-04-18 06:06 37.09971 112.82771 39609 ft 509 kts 167°
2026-04-18 06:07 37.03164 112.85265 39532 ft 509 kts 174°
2026-04-18 06:07 36.96278 112.87336 39624 ft 508 kts 174°
2026-04-18 06:08 36.89471 112.89453 39728 ft 507 kts 173°
2026-04-18 06:08 36.82640 112.91674 39813 ft 507 kts 173°
2026-04-18 06:09 36.75810 112.93926 39843 ft 508 kts 173°
2026-04-18 06:09 36.69018 112.96161 39893 ft 508 kts 173°
2026-04-18 06:10 36.62187 112.98402 39956 ft 508 kts 173°
2026-04-18 06:10 36.55345 113.00639 40026 ft 508 kts 173°
2026-04-18 06:11 36.48503 113.02870 40037 ft 509 kts 173°
2026-04-18 06:11 36.41702 113.05082 40039 ft 510 kts 173°
2026-04-18 06:12 36.34831 113.07313 40030 ft 510 kts 173°
2026-04-18 06:12 36.27896 113.09195 40045 ft 507 kts 182°
2026-04-18 06:13 36.20987 113.08820 40042 ft 496 kts 201°
2026-04-18 06:13 36.14514 113.06095 40035 ft 490 kts 211°
2026-04-18 06:14 36.08296 113.02770 40054 ft 489 kts 213°
2026-04-18 06:14 36.02052 112.99386 40048 ft 490 kts 212°
2026-04-18 06:15 35.96839 112.96629 40050 ft 491 kts 212°
2026-04-18 06:15 35.90537 112.93351 40049 ft 491 kts 212°
2026-04-18 06:16 35.83198 112.89556 40055 ft 492 kts 212°
2026-04-18 06:16 35.76934 112.86321 40057 ft 492 kts 212°
2026-04-18 06:17 35.70624 112.83039 40027 ft 492 kts 212°
2026-04-18 06:17 35.65385 112.80308 40048 ft 491 kts 212°
2026-04-18 06:18 35.59087 112.77035 40049 ft 492 kts 212°
2026-04-18 06:18 35.51764 112.73225 40049 ft 492 kts 212°
2026-04-18 06:19 35.47295 112.70891 40037 ft 492 kts 212°
2026-04-18 06:19 35.39976 112.67076 40036 ft 492 kts 212°
2026-04-18 06:20 35.34726 112.64349 40039 ft 491 kts 212°
2026-04-18 06:20 35.27395 112.60561 40027 ft 487 kts 212°
2026-04-18 06:21 35.21190 112.57358 40030 ft 486 kts 212°
2026-04-18 06:21 35.16006 112.54692 40032 ft 486 kts 212°
2026-04-18 06:22 35.09668 112.51729 40034 ft 490 kts 207°
2026-04-18 06:22 35.03152 112.49261 40017 ft 490 kts 206°
2026-04-18 06:23 34.96655 112.46880 40007 ft 490 kts 206°
2026-04-18 06:23 34.90113 112.44496 40015 ft 490 kts 206°
2026-04-18 06:24 34.82498 112.41715 40009 ft 491 kts 206°
2026-04-18 06:24 34.77041 112.39806 39977 ft 493 kts 202°
2026-04-18 06:25 34.70140 112.39112 40026 ft 501 kts 187°
2026-04-18 06:25 34.63196 112.39570 40008 ft 504 kts 185°
2026-04-18 06:26 34.56199 112.40203 40002 ft 505 kts 185°
2026-04-18 06:26 34.49182 112.40840 40000 ft 505 kts 185°
2026-04-18 06:27 34.42161 112.41454 40000 ft 506 kts 185°
2026-04-18 06:27 34.35191 112.42051 40001 ft 505 kts 185°
2026-04-18 06:28 34.28168 112.42650 40004 ft 505 kts 185°
2026-04-18 06:28 34.21146 112.43249 40004 ft 505 kts 185°
2026-04-18 06:29 34.14166 112.43843 39999 ft 505 kts 185°
2026-04-18 06:29 34.07147 112.44440 40009 ft 505 kts 186°
2026-04-18 06:30 34.00138 112.45036 40011 ft 505 kts 186°
2026-04-18 06:30 33.93164 112.45625 40026 ft 506 kts 186°
2026-04-18 06:31 33.86132 112.46215 40015 ft 505 kts 186°
2026-04-18 06:31 33.79177 112.46800 40031 ft 504 kts 186°
2026-04-18 06:32 33.72178 112.47392 40034 ft 504 kts 186°
2026-04-18 06:32 33.65213 112.47981 40032 ft 504 kts 186°
2026-04-18 06:33 33.58227 112.48575 40035 ft 503 kts 186°
2026-04-18 06:33 33.51236 112.49171 40036 ft 503 kts 186°
2026-04-18 06:34 33.44288 112.49765 40035 ft 503 kts 186°
2026-04-18 06:34 33.37293 112.50359 40015 ft 503 kts 186°
2026-04-18 06:35 33.30308 112.50950 40028 ft 503 kts 186°
2026-04-18 06:35 33.23362 112.51540 40025 ft 503 kts 186°
2026-04-18 06:36 33.16381 112.52133 40027 ft 503 kts 186°